This demonstration page uses our WeatherBlox Daily Observations layout. Learn more.

Left ArrowRight Arrow

39.08367, -84.50855

Hourly Observations for November 12, 2022

Temp ( °F °C ) Dew Point ( °F °C ) Humidity (%) Winds ( mph kmh ) Pressure ( in mb ) Visibility ( mi km ) Precip ( " mm )
12:53 am 00:53 Cloudy 47 8.3 35 1.7 63 63 W 9 15 29.88 1012 10 16 0.00 0.00
1:53 am 01:53 Cloudy 45 7.2 33 0.6 63 63 NW 6 9 29.91 1013 10 16 0.00 0.00
2:53 am 02:53 Cloudy 43 6.1 32 0 65 65 NNW 6 9 29.92 1013 10 16 0.00 0.00
3:53 am 03:53 Cloudy 41 5 30 -1.1 65 65 N 9 15 29.91 1013 10 16 0.00 0.00
4:53 am 04:53 Mostly Cloudy 39 3.9 29 -1.7 67 67 NW 8 13 29.92 1013 10 16 0.00 0.00
5:53 am 05:53 Cloudy 37 2.8 28 -2.2 70 70 NNW 6 9 29.92 1013 10 16 0.00 0.00
6:53 am 06:53 Cloudy with Light Rain 36 2.2 28 -2.2 73 73 NNW 7 11 29.94 1014 10 16 0.01 0.13
7:53 am 07:53 Cloudy with Light Rain 35 1.7 28 -2.2 75 75 W 9 15 29.98 1015 8 13 0.01 0.25
8:53 am 08:53 Cloudy with Light Rain 34 1.1 28 -2.2 79 79 NNW 8 13 29.99 1016 2 3 0.01 0.13
9:53 am 09:53 Cloudy with Light Snow 33 0.6 30 -1.1 88 88 NW 8 13 29.98 1015 2 3 0.01 0.25
10:37 am 10:37 Cloudy with Light Snow 32 0 31 -0.6 96 96 WNW 6 9 30.00 1016 2 3 0.01 0.25
10:57 am 10:57 Cloudy with Snow 32 0 31 -0.6 96 96 VRB 6 9 30.01 1016 0 0 0.01 0.13
11:07 am 11:07 Cloudy with Light Snow 32 0 31 -0.6 96 96 W 9 15 30.03 1017 1 2 0.01 0.25
11:53 am 11:53 Cloudy with Light Snow 33 0.6 30 -1.1 88 88 W 5 7 30.00 1016 1 2 0.06 1.52
12:53 pm 12:53 Cloudy with Light Snow 33 0.6 31 -0.6 92 92 WNW 9 15 30.01 1016 1 2 0.05 1.27
1:23 pm 13:23 Cloudy with Mist and Fog 34 1.1 30 -1.1 85 85 W 10 17 30.03 1017 2 3 0.01 0.13
1:53 pm 13:53 Cloudy with Mist and Fog 34 1.1 30 -1.1 85 85 W 9 15 30.01 1016 6 10 0.01 0.13
2:40 pm 14:40 Cloudy 34 1.1 29 -1.7 82 82 NW 8 13 30.03 1017 7 11 0.00 0.00
2:53 pm 14:53 Cloudy with Mist and Fog 34 1.1 30 -1.1 85 85 W 7 11 30.02 1017 6 10 0.00 0.00
3:16 pm 15:16 Cloudy 34 1.1 30 -1.1 85 85 W 9 15 30.06 1018 7 11 0.00 0.00
3:53 pm 15:53 Cloudy with Haze 34 1.1 29 -1.7 82 82 W 12 19 30.06 1018 6 10 0.00 0.00
4:53 pm 16:53 Cloudy with Haze 34 1.1 28 -2.2 79 79 W 13 20 30.08 1019 6 10 0.00 0.00
5:53 pm 17:53 Cloudy 33 0.6 28 -2.2 81 81 W 10 17 30.10 1019 10 16 0.00 0.00
6:53 pm 18:53 Cloudy 33 0.6 28 -2.2 81 81 WSW 7 11 30.13 1020 10 16 0.00 0.00
7:53 pm 19:53 Cloudy 34 1.1 28 -2.2 79 79 W 9 15 30.14 1021 8 13 0.00 0.00
8:53 pm 20:53 Cloudy 34 1.1 28 -2.2 79 79 W 10 17 30.14 1021 7 11 0.00 0.00
9:53 pm 21:53 Cloudy with Mist and Fog 33 0.6 30 -1.1 88 88 WSW 9 15 30.15 1021 4 6 0.00 0.00
10:23 pm 22:23 Cloudy with Mist and Fog 33 0.6 30 -1.1 88 88 W 12 19 30.18 1022 5 8 0.00 0.00
10:53 pm 22:53 Cloudy with Mist and Fog 33 0.6 30 -1.1 88 88 W 10 17 30.15 1021 6 10 0.00 0.00
11:53 pm 23:53 Cloudy 34 1.1 30 -1.1 85 85 W 9 15 30.16 1021 7 11 0.00 0.00

Powered by AerisWeather